Regional Weather Roundup
Issued by NWS

Home | Current Version | Previous Version | Text Only | Print | Product List | Glossary Off
Versions: 1 2 3 4 5 6 7 8 9 10 11 12 13 14 15 16 17 18 19 20 21 22 23 24 25 26 27

000
ASUS45 KCYS 230710
RWRWY

WYOMING REGIONAL WEATHER ROUNDUP
NATIONAL WEATHER SERVICE CHEYENNE WY
100 AM MDT WED MAY 23 2018

NOTE:  "FAIR" INDICATES FEW OR NO CLOUDS BELOW 12,000 FEET
WITH NO SIGNIFICANT WEATHER AND/OR OBSTRUCTIONS TO VISIBILITY.

WYZ001-230800-
YELLOWSTONE NATIONAL PARK

CITY           SKY/WX    TMP DP  RH WIND       PRES   REMARKS
LK YELLOWSTONE   N/A     40  35  83 CALM      30.10F
W YELLOWSTONE  NOT AVBL

$$
WYZ002>013-054>058-071-098>099-230800-
NORTHERN WYOMING

CITY           SKY/WX    TMP DP  RH WIND       PRES   REMARKS
JACKSON        LGT RAIN  48  44  86 CALM      30.03F
CODY           LGT RAIN  51  49  92 NE6       30.03S
GREYBULL       RAIN      57  55  93 NW3       29.98F FOG
WORLAND        LGT RAIN  54  54 100 CALM      29.97F
SHERIDAN       CLOUDY    54  53  97 N6        29.94F
BUFFALO        LGT RAIN  55  52  89 S15       29.99F
GILLETTE       LGT RAIN  57  52  83 SE6       29.98R
NEWCASTLE      LGT RAIN  55  46  71 S9G16     29.97S

$$
WYZ014>020-022>026-101>103-230800-
CENTRAL WYOMING

CITY           SKY/WX    TMP DP  RH WIND       PRES   REMARKS
BIG PINEY      MOCLDY    44  42  93 W5        30.07F
PINEDALE       CLOUDY    45  43  93 NW3       30.08F
DUBOIS         LGT RAIN  43  41  93 CALM      30.07F
LANDER         CLOUDY    49  46  90 CALM      30.01F
RIVERTON       LGT RAIN  48  47  96 NW13      30.02F
CASPER         CLOUDY    53  52  96 E3        29.99F
DOUGLAS        CLOUDY    53  53 100 W3        29.97F

$$
WYZ021-027>030-104>119-230800-
SOUTHERN WYOMING

CITY           SKY/WX    TMP DP  RH WIND       PRES   REMARKS
EVANSTON       CLOUDY    45  41  86 CALM      30.06F
KEMMERER       FAIR      43  37  81 SW5       30.09F
FORT BRIDGER   RAIN      45  44  95 W15       30.10F
ROCK SPRINGS   MOCLDY    44  42  93 SE12      30.06F
DIXON          FAIR      40  38  92 E6        30.09S
RAWLINS          N/A     43  39  86 SW8       30.06F
SARATOGA       FAIR      43  43 100 SE8       30.08S
LARAMIE        FAIR      41  41 100 S9        30.08R
CHEYENNE       FAIR      51  48  89 NW5       30.02F
TORRINGTON     FAIR      56  54  93 W8        29.92F
PINE BLUFFS    FAIR      52  50  93 CALM      29.99R

$$




USA.gov is the U.S. government's official web portal to all federal, state and local government web resources and services.